Flag for China Weather past 2 weeks in Chongqing, Chongqing Municipality, China

Now
90 °F

Clear.


Feels Like: 89 °F
Forecast: 72 / 100 °F
Wind: 3 mph from Northeast

Location: Chongqing Airport

Current Time: Jul 25, 2014 at 9:55:26 PM

Latest Report: Jul 25, 2014 at 9:00 PM


Visibility: 10 mi

Pressure: 29.71 "Hg

Humidity: 36%

Dew point: 59 °F

Location of ChongqingLocation

Historic Weather in Chongqing — Graph

°F

Chongqing temperature yesterday

Maximum temperature yesterday: 90 °F (at 12:00 AM)
Minimum temperature yesterday: 73 °F (at 9:00 AM)
Average temperature yesterday: 83 °F

Past Weeks' High & Low Weather Summary

 TemperatureHumidityPressure
High102 °F (Jul 22, 3:00 PM)94% (Jul 14, 11:00 AM)29.86 "Hg (Jul 14, 11:00 AM)
Low72 °F (Jul 15, 3:00 AM)27% (Jul 22, 3:00 PM)29.53 "Hg (Jul 23, 6:00 PM)
Average84 °F65%29.71 "Hg
* Reported Jul 10 8:00 PM — Jul 25 8:00 PM, Chongqing, Weather by CustomWeather, © 2014

Note: Actual official high and low records may vary slightly from our data, if they occured in-between our weather recording intervals... More about our weather records

Advertising

Chongqing weather history for previous 24 hours

 ConditionsComfort  
Time TempWeatherWind HumidityBarometerVisibility
8:00 PM
Jul 25
91 °FClear.6 mph32%29.68 "Hg10 mi
7:00 PM95 °FSunny.6 mph30%29.65 "Hg10 mi
6:00 PM95 °FPassing clouds.8 mph30%29.62 "HgN/A
5:00 PM97 °FPassing clouds.3 mph32%29.65 "HgN/A
4:00 PM99 °FPassing clouds.6 mph33%29.68 "HgN/A
3:00 PM97 °FScattered clouds.3 mph34%29.68 "HgN/A
2:00 PM97 °FScattered clouds.3 mph32%29.71 "HgN/A
1:00 PM91 °FScattered clouds.3 mph46%29.71 "HgN/A
12:00 PM91 °FScattered clouds.3 mph52%29.74 "HgN/A
11:00 AM88 °FPassing clouds.3 mph59%29.74 "HgN/A
10:00 AM86 °FPassing clouds.3 mph62%29.74 "Hg4 mi
9:00 AM84 °FHaze.3 mph66%29.74 "Hg3 mi
8:00 AM81 °FFog.1 mph74%29.71 "Hg3 mi
7:00 AM79 °FFog.1 mph79%29.71 "Hg3 mi
6:00 AM77 °FClear.1 mph83%29.71 "Hg4 mi
5:00 AM79 °FClear.1 mph79%29.68 "Hg4 mi
4:00 AM79 °FClear.1 mph74%29.68 "Hg4 mi
3:00 AM81 °FClear.1 mph74%29.68 "Hg10 mi
2:00 AM81 °FClear.3 mph74%29.71 "Hg10 mi
1:00 AM81 °FClear.No wind70%29.71 "Hg10 mi
12:00 AM82 °FClear.1 mph66%29.71 "Hg10 mi
11:00 PM
Jul 24
81 °FClear.1 mph70%29.71 "Hg10 mi
10:00 PM82 °FPassing clouds.3 mph66%29.71 "HgN/A
9:00 PM84 °FClear.3 mph62%29.68 "Hg10 mi
Weather by CustomWeather, © 2014

See weather overviewHow to use our weather pages